Weather History for Toledo, OH

Change the Weather History Date:

Wednesday, December 25, 2013

  Actual Average Record
Temperature  
Mean Temperature 17 °F 27 °F  
Max Temperature 25 °F 34 °F 63 °F (1982)
Min Temperature 9 °F 21 °F -13 °F (1983)
Degree Days  
Heating Degree Days 48 38  
Month to date heating degree days 938 862  
Since 1 July heating degree days 2286 2095  
Cooling Degree Days 0 0  
Month to date cooling degree days 0 0  
Year to date cooling degree days 793 793  
Moisture  
Dew Point 16 °F    
Average Humidity 80    
Maximum Humidity 92    
Minimum Humidity 67    
Precipitation  
Precipitation 0.01 in 0.08 in 0.73 in (1982)
Month to date precipitation 2.98 2.19  
Year to date precipitation 36.74 33.75  
Snow  
Snow 0.20 in 0.20 in - ()
Month to date snowfall 9.7 5.5  
Since 1 July snowfall 10.2 7.6  
Snow Depth 0.00 in    
Sea Level Pressure  
Sea Level Pressure 30.32 in    
Wind  
Wind Speed 6 mph (South)    
Max Wind Speed 14 mph    
Max Gust Speed 21 mph    
Visibility 9 miles    
Events Snow    
T = Trace of Precipitation, MM = Missing Value Source: NWS Daily Summary

Daily Weather History Graph

Daily Weather History Graph

Search for Another Location

Airport:

Trip Planner

Search our weather history database for the weather conditions in past years. The results will help you decide how hot, cold, wet, or windy it might be!

Date:

Astronomy

Dec. 25, 2013 Rise Set
Actual Time 8:00 AM EST 5:10 PM EST
Civil Twilight 7:28 AM EST 5:42 PM EST
Nautical Twilight 6:53 AM EST 6:17 PM EST
Astronomical Twilight 6:20 AM EST 6:50 PM EST
Moon 12:22 AM EST (12/25) 12:17 PM EST (12/25)
Length of Visible Light 10h 13m
Length of Day
9h 10m
Waning Gibbous, 49% of the Moon is Illuminated
Dec 25
Waning Gibbous
Jan 1
New
Jan 7
First Quarter
Jan 15
Full
Jan 24
Last Quarter

Hourly Weather History & Observations

Time (EST) Temp. Windchill Dew Point Humidity Pressure Visibility Wind Dir Wind Speed Gust Speed Precip Events Conditions
12:52 AM 9.0 °F - 7.0 °F 92% 30.51 in 10.0 mi Calm Calm - N/A   Clear
1:52 AM 10.0 °F - 8.1 °F 92% 30.49 in 10.0 mi Calm Calm - N/A   Clear
2:52 AM 15.1 °F 9.4 °F 12.0 °F 88% 30.49 in 10.0 mi SE 3.5 mph - N/A   Overcast
3:52 AM 16.0 °F 7.4 °F 12.9 °F 88% 30.47 in 10.0 mi SSE 5.8 mph - N/A   Overcast
4:52 AM 17.1 °F 7.6 °F 12.0 °F 81% 30.48 in 10.0 mi South 6.9 mph - N/A   Overcast
5:52 AM 18.0 °F 9.8 °F 12.0 °F 78% 30.45 in 10.0 mi SSE 5.8 mph - N/A   Overcast
6:52 AM 18.0 °F 7.7 °F 10.0 °F 71% 30.40 in 10.0 mi SSE 8.1 mph 18.4 mph N/A   Overcast
7:52 AM 19.0 °F 8.2 °F 10.0 °F 68% 30.40 in 10.0 mi SSE 9.2 mph - N/A   Overcast
8:52 AM 19.9 °F 10.1 °F 10.0 °F 65% 30.39 in 10.0 mi South 8.1 mph 18.4 mph N/A   Overcast
9:52 AM 21.0 °F 10.6 °F 12.0 °F 68% 30.39 in 10.0 mi South 9.2 mph - N/A   Overcast
10:52 AM 21.0 °F 10.6 °F 14.0 °F 74% 30.36 in 3.0 mi South 9.2 mph 18.4 mph 0.00 in Snow Light Snow
11:02 AM 21.2 °F 10.1 °F 15.8 °F 80% 30.32 in 2.5 mi South 10.4 mph 20.7 mph 0.00 in Snow Light Snow
11:09 AM 21.2 °F 10.9 °F 15.8 °F 80% 30.32 in 3.0 mi South 9.2 mph 17.3 mph 0.00 in Snow Light Snow
11:34 AM 21.2 °F 10.9 °F 17.6 °F 86% 30.31 in 2.5 mi South 9.2 mph - 0.00 in Snow Light Snow
11:44 AM 21.2 °F 13.6 °F 15.8 °F 80% 30.31 in 3.0 mi SSW 5.8 mph - 0.00 in Snow Light Snow
11:52 AM 21.9 °F 13.4 °F 16.0 °F 78% 30.34 in 5.0 mi South 6.9 mph - 0.00 in Snow Light Snow
12:52 PM 21.9 °F 11.0 °F 17.1 °F 82% 30.30 in 10.0 mi SSW 10.4 mph - 0.01 in   Overcast
1:52 PM 23.0 °F 14.7 °F 16.0 °F 74% 30.27 in 10.0 mi SSW 6.9 mph - N/A   Overcast
2:21 PM 23.0 °F 12.4 °F 15.8 °F 74% 30.22 in 10.0 mi SSW 10.4 mph 18.4 mph N/A   Overcast
2:52 PM 23.0 °F 15.8 °F 17.1 °F 78% 30.25 in 10.0 mi SSW 5.8 mph - N/A   Overcast
3:52 PM 24.1 °F 15.2 °F 18.0 °F 77% 30.25 in 10.0 mi SSW 8.1 mph - N/A   Overcast
4:52 PM 24.1 °F 17.0 °F 18.0 °F 77% 30.25 in 10.0 mi SSW 5.8 mph - N/A   Overcast
5:32 PM 24.8 °F 17.9 °F 19.4 °F 80% 30.21 in 10.0 mi SW 5.8 mph - N/A   Overcast
5:52 PM 24.1 °F 16.0 °F 19.0 °F 81% 30.25 in 10.0 mi SSW 6.9 mph - N/A   Overcast
6:52 PM 24.1 °F 17.0 °F 19.9 °F 84% 30.24 in 10.0 mi SSW 5.8 mph - N/A   Overcast
7:52 PM 24.1 °F 17.0 °F 21.0 °F 88% 30.22 in 10.0 mi SSW 5.8 mph - N/A   Overcast
8:18 PM 24.8 °F 16.1 °F 21.2 °F 86% 30.19 in 10.0 mi SSW 8.1 mph - N/A   Overcast
8:52 PM 25.0 °F 17.1 °F 21.0 °F 85% 30.22 in 10.0 mi SSW 6.9 mph - N/A   Overcast
9:52 PM 25.0 °F 17.1 °F 21.0 °F 85% 30.19 in 10.0 mi SSW 6.9 mph - N/A   Overcast
10:52 PM 25.0 °F 18.1 °F 21.9 °F 88% 30.18 in 10.0 mi SSW 5.8 mph - N/A   Overcast
11:25 PM 24.8 °F 15.3 °F 21.2 °F 86% 30.14 in 10.0 mi SSW 9.2 mph - N/A   Overcast
11:52 PM 25.0 °F 17.1 °F 21.0 °F 85% 30.15 in 10.0 mi SSW 6.9 mph - N/A   Overcast